Content
SEND FEEDBACK

Daily
Averages
Monthly
Summary
United States of America

MALDEN, MISSOURI


Home > North America > United States > Missouri
Elevation: 295 feet     Latitude: 36 36N     Longitude: 089 59W

WEATHER
 
SELECT A DAY
Number of Records: 207,697;   Date Range: 1/1/95 - 7/26/14
 
SHARE

PRINT THIS DATA

[ ← Previous Day ]
WEATHER ALMANAC - DECEMBER 7, 2013
[ Next Day → ]
[ °C ]   °F
Weather ElementAverageHighLow
Temperature19.2 °F24.1 °F (12:53 pm)12 °F (6:53 am)
Dewpoint7.2 °F10.9 °F (11:53 pm)1.9 °F (6:53 am)
Humidity59.8 %65 % (1:53 am)53 % (12:53 pm)
Barometer30.58 in30.70 in (9:53 am)30.44 in (11:53 pm)
Wind Speed11.9 mph15 mph (1:53 pm)
Weather ElementAverage
Visibility9.4 mi
Wind DirectionNNE (37.8 °)

Weather ElementTotal
Precipitation2.86 in
Heating Degree Days47 (Base 65)
Averaged from 23 records on December 7, 2013
WEATHER CONDITIONS BREAKOUT
WIND DIRECTION BREAKOUT
WEATHER BY HOUR - DECEMBER 7, 2013
[ °C ]   °F
Local TimeTemperatureDewpointHumidityBarometerVisibilityWind DirectionWind SpeedGust SpeedPrecipitationEventsConditions
1:53 AM19.9 °F10.0 °F65 %30.56 in10.0 miNorth (360°)11.5 mph0.30 inOvercast
2:53 AM18.0 °F7.0 °F62 %30.59 in10.0 miNorth (10°)11.5 mph0.26 inClear
3:53 AM16.0 °F5.0 °F62 %30.60 in10.0 miNorth (10°)11.5 mph0.23 inClear
4:53 AM14.0 °F3.9 °F64 %30.61 in10.0 miNorth (10°)12.7 mphClear
5:53 AM12.9 °F3.0 °F65 %30.63 in10.0 miNorth (10°)12.7 mphClear
6:53 AM12.0 °F1.9 °F64 %30.65 in10.0 miNorth (10°)11.5 mphClear
7:53 AM12.0 °F1.9 °F64 %30.66 in10.0 miNorth (10°)12.7 mphClear
8:53 AM15.1 °F5.0 °F64 %30.68 in10.0 miNorth (10°)11.5 mph2.00 inClear
9:53 AM18.0 °F6.1 °F60 %30.70 in10.0 miNNE (20°)10.4 mph0.07 inClear
10:53 AM19.9 °F8.1 °F60 %30.69 in10.0 miNNE (30°)12.7 mph0.00 inClear
11:53 AM21.9 °F8.1 °F55 %30.66 in9.0 miNE (40°)12.7 mph0.00 inSnowLight Snow
12:53 PM24.1 °F9.0 °F53 %30.61 in9.0 miNNE (30°)13.8 mph0.00 inSnowLight Snow
1:53 PM24.1 °F10.0 °F55 %30.58 in9.0 miNorth (10°)15.0 mph0.00 inSnowLight Snow
2:53 PM24.1 °F9.0 °F53 %30.58 in9.0 miNE (40°)8.1 mph0.00 inSnowLight Snow
3:53 PM23.0 °F9.0 °F55 %30.56 in9.0 miNNE (30°)8.1 mph0.00 inSnowLight Snow
4:53 PM21.0 °F7.0 °F55 %30.54 in9.0 miNE (40°)10.4 mph0.00 inSnowLight Snow
5:53 PM19.9 °F7.0 °F57 %30.53 in9.0 miNNE (30°)12.7 mph0.00 inSnowLight Snow
6:53 PM19.9 °F7.0 °F57 %30.53 in9.0 miNNE (30°)11.5 mph0.00 inSnowLight Snow
7:53 PM19.9 °F8.1 °F60 %30.53 in9.0 miNNE (20°)11.5 mph0.00 inSnowLight Snow
8:53 PM21.0 °F9.0 °F60 %30.52 in9.0 miNNE (20°)11.5 mph0.00 inSnowLight Snow
9:53 PM21.0 °F9.0 °F60 %30.48 in9.0 miNNE (20°)13.8 mph0.00 inSnowLight Snow
10:53 PM21.0 °F10.0 °F63 %30.45 in9.0 miNNE (30°)15.0 mph0.00 inSnowLight Snow
11:53 PM21.9 °F10.9 °F63 %30.44 in9.0 miNE (50°)10.4 mph0.00 inSnowLight Snow
Hourly data recorded from KPOF, located miles away from Malden, Missouri







STORIES FROM OUR PARTNERS